Bar Harbor, ME

8:02 PM EDT on June 23, 2017 (GMT -0400)
Hancock County-Bar Harbor

Weather History for KBHB - December, 2013

Change the Weather History Date:

Sunday, December 1, 2013

  Actual Average Record
Temperature  
Mean Temperature 36 °F -  
Max Temperature 39 °F 39 °F 58 °F (1975)
Min Temperature 33 °F 23 °F 8 °F (1958)
Degree Days  
Heating Degree Days 29    
Moisture  
Dew Point 35 °F    
Average Humidity 95    
Maximum Humidity 100    
Minimum Humidity 70    
Precipitation  
Precipitation 0.18 in - - ()
Sea Level Pressure  
Sea Level Pressure 30.25 in    
Wind  
Wind Speed 8 mph (West)    
Max Wind Speed 16 mph    
Max Gust Speed 24 mph    
Visibility 8 miles    
Events      
Averages and records for this station are not official NWS values.
T = Trace of Precipitation, MM = Missing Value Source: NWS Daily Summary

Daily Weather History Graph

Daily Weather History Graph

Search for Another Location

Airport or City:

Trip Planner

Search our weather history database for the weather conditions in past years. The results will help you decide how hot, cold, wet, or windy it might be!

Date:

Astronomy

Dec. 01, 2013 Rise Set
Actual Time 6:49 AM EST 3:55 PM EST
Civil Twilight 6:17 AM EST 4:27 PM EST
Nautical Twilight 5:40 AM EST 5:04 PM EST
Astronomical Twilight 5:05 AM EST 5:39 PM EST
Moon 5:00 AM EST (12/1) 3:04 PM EST (12/1)
Length of Visible Light 10h 10m
Length of Day
9h 05m
Waning Crescent, 2% of the Moon is Illuminated
Dec 1
Waning Crescent
Dec 2
New
Dec 9
First Quarter
Dec 17
Full
Dec 25
Last Quarter

Hourly Weather History & Observations

Time (EST) Temp. Windchill Dew Point Humidity Pressure Visibility Wind Dir Wind Speed Gust Speed Precip Events Conditions
12:15 AM 35.6 °F 26.2 °F 26.6 °F 70% 30.42 in 10.0 mi SSW 15.0 mph 21.9 mph N/A   Overcast
12:35 AM 35.6 °F 25.9 °F 26.6 °F 70% 30.42 in 10.0 mi South 16.1 mph 24.2 mph N/A   Overcast
12:55 AM 35.6 °F 26.2 °F 28.4 °F 75% 30.41 in 10.0 mi SSW 15.0 mph 23.0 mph N/A   Overcast
1:15 AM 33.8 °F 24.3 °F 30.2 °F 87% 30.41 in 7.0 mi SSW 13.8 mph 24.2 mph N/A   Overcast
1:35 AM 33.8 °F 25.8 °F 32.0 °F 93% 30.41 in 3.0 mi SSW 10.4 mph - N/A   Overcast
1:55 AM 33.8 °F 26.4 °F 33.8 °F 100% 30.40 in 9.0 mi SSW 9.2 mph 16.1 mph N/A   Overcast
2:15 AM 33.8 °F 24.8 °F 32.0 °F 93% 30.39 in 10.0 mi SSW 12.7 mph - N/A   Overcast
2:35 AM 35.6 °F 26.6 °F 33.8 °F 93% 30.39 in 10.0 mi SSW 13.8 mph 21.9 mph N/A   Overcast
2:55 AM 33.8 °F 25.8 °F 32.0 °F 93% 30.38 in 9.0 mi SSW 10.4 mph - N/A   Overcast
3:15 AM 33.8 °F 27.0 °F 33.8 °F 100% 30.37 in 5.0 mi SSW 8.1 mph - N/A   Overcast
3:35 AM 35.6 °F 29.2 °F 33.8 °F 93% 30.36 in 10.0 mi SW 8.1 mph - N/A   Mostly Cloudy
3:55 AM 35.6 °F 27.5 °F 33.8 °F 93% 30.35 in 5.0 mi SSW 11.5 mph 20.7 mph N/A   Overcast
4:15 AM 35.6 °F 29.2 °F 33.8 °F 93% 30.35 in 10.0 mi SW 8.1 mph - N/A   Mostly Cloudy
4:35 AM 35.6 °F 28.0 °F 33.8 °F 93% 30.34 in 10.0 mi SSW 10.4 mph - N/A   Overcast
4:55 AM 35.6 °F 28.6 °F 32.0 °F 87% 30.33 in 10.0 mi SSW 9.2 mph - N/A   Overcast
5:15 AM 37.4 °F 32.1 °F 30.2 °F 75% 30.33 in 10.0 mi SW 6.9 mph - N/A   Overcast
5:35 AM 37.4 °F 31.4 °F 32.0 °F 81% 30.32 in 10.0 mi SSW 8.1 mph - N/A   Overcast
5:55 AM 37.4 °F 30.8 °F 32.0 °F 81% 30.32 in 10.0 mi South 9.2 mph - N/A   Overcast
6:15 AM 37.4 °F 32.1 °F 33.8 °F 87% 30.31 in 10.0 mi South 6.9 mph - N/A   Overcast
6:35 AM 37.4 °F 31.4 °F 33.8 °F 87% 30.31 in 10.0 mi SW 8.1 mph - N/A   Overcast
6:55 AM 37.4 °F 28.9 °F 33.8 °F 87% 30.30 in 10.0 mi SSW 13.8 mph - N/A   Overcast
7:15 AM 37.4 °F 30.8 °F 33.8 °F 87% 30.30 in 10.0 mi South 9.2 mph - N/A   Overcast
7:35 AM 37.4 °F 32.8 °F 35.6 °F 93% 30.30 in 10.0 mi South 5.8 mph - N/A   Overcast
7:55 AM 37.4 °F 34.9 °F 33.8 °F 87% 30.30 in 10.0 mi SE 3.5 mph - N/A   Overcast
8:15 AM 37.4 °F - 33.8 °F 87% 30.29 in 10.0 mi Calm Calm - N/A   Overcast
8:35 AM 37.4 °F - 33.8 °F 87% 30.29 in 10.0 mi Calm Calm - N/A   Overcast
8:55 AM 35.6 °F 32.8 °F 35.6 °F 100% 30.30 in 7.0 mi WNW 3.5 mph - 0.01 in   Overcast
9:15 AM 37.4 °F 33.8 °F 37.4 °F 100% 30.29 in 6.0 mi SSW 4.6 mph - 0.01 in   Overcast
9:35 AM 37.4 °F 34.9 °F 37.4 °F 100% 30.29 in 7.0 mi SW 3.5 mph - 0.02 in   Overcast
9:55 AM 37.4 °F - 37.4 °F 100% 30.29 in 7.0 mi Calm Calm - 0.02 in   Overcast
10:15 AM 37.4 °F - 37.4 °F 100% 30.28 in 6.0 mi Calm Calm - N/A   Overcast
10:35 AM 37.4 °F - 35.6 °F 93% 30.27 in 9.0 mi Calm Calm - N/A   Overcast
10:55 AM 37.4 °F - 37.4 °F 100% 30.26 in 10.0 mi Calm Calm - N/A   Overcast
11:15 AM 37.4 °F - 37.4 °F 100% 30.25 in 5.0 mi Calm Calm - 0.01 in   Overcast
11:35 AM 37.4 °F - 37.4 °F 100% 30.24 in 8.0 mi Calm Calm - 0.01 in   Overcast
11:55 AM 39.2 °F - 39.2 °F 100% 30.24 in 7.0 mi Calm Calm - 0.01 in   Overcast
12:15 PM 39.2 °F - 39.2 °F 100% 30.23 in 8.0 mi Calm Calm - N/A   Overcast
12:35 PM 39.2 °F - 39.2 °F 100% 30.22 in 5.0 mi Calm Calm - 0.01 in   Overcast
12:55 PM 39.2 °F - 39.2 °F 100% 30.21 in 7.0 mi Calm Calm - 0.02 in   Overcast
1:15 PM 39.2 °F - 39.2 °F 100% 30.21 in 4.0 mi Calm Calm - 0.01 in   Overcast
1:35 PM 39.2 °F - 37.4 °F 93% 30.20 in 4.0 mi Calm Calm - 0.01 in   Overcast
1:55 PM 39.2 °F - 37.4 °F 93% 30.20 in 3.0 mi Calm Calm - 0.02 in   Overcast
2:15 PM 39.2 °F - 37.4 °F 93% 30.19 in 4.0 mi Calm Calm - 0.02 in   Overcast
2:35 PM 39.2 °F - 39.2 °F 100% 30.19 in 4.0 mi Calm Calm - 0.03 in   Overcast
2:55 PM 39.2 °F - 39.2 °F 100% 30.19 in 3.0 mi Calm Calm - 0.03 in   Overcast
3:15 PM 39.2 °F - 39.2 °F 100% 30.18 in 5.0 mi Calm Calm - N/A   Overcast
3:35 PM 39.2 °F 37.0 °F 37.4 °F 93% 30.18 in 5.0 mi ESE 3.5 mph - 0.01 in   Overcast
3:55 PM 39.2 °F - 37.4 °F 93% 30.17 in 8.0 mi Calm Calm - 0.01 in   Overcast
4:15 PM 39.2 °F - 37.4 °F 93% 30.17 in 5.0 mi Calm Calm - N/A   Overcast
4:35 PM 37.4 °F - 37.4 °F 100% 30.17 in 3.0 mi Calm Calm - N/A   Overcast
4:55 PM 37.4 °F 34.9 °F 37.4 °F 100% 30.17 in 1.2 mi North 3.5 mph - N/A   Overcast
5:15 PM 35.6 °F 29.9 °F 35.6 °F 100% 30.17 in 1.5 mi North 6.9 mph - N/A   Overcast
5:35 PM 35.6 °F 30.7 °F 33.8 °F 93% 30.17 in 2.0 mi North 5.8 mph - N/A   Overcast
5:55 PM 33.8 °F 28.6 °F 33.8 °F 100% 30.18 in 3.0 mi North 5.8 mph - N/A   Overcast
6:15 PM 33.8 °F 30.8 °F 33.8 °F 100% 30.18 in 5.0 mi North 3.5 mph - 0.01 in   Overcast
6:35 PM 33.8 °F 29.6 °F 33.8 °F 100% 30.17 in 8.0 mi North 4.6 mph - 0.01 in   Overcast
6:55 PM 33.8 °F 27.7 °F 33.8 °F 100% 30.16 in 9.0 mi North 6.9 mph - 0.01 in   Overcast
7:15 PM 33.8 °F 27.7 °F 33.8 °F 100% 30.16 in 10.0 mi North 6.9 mph - N/A   Overcast
7:35 PM 33.8 °F 28.6 °F 33.8 °F 100% 30.16 in 9.0 mi North 5.8 mph - N/A   Overcast
7:55 PM 33.8 °F 28.6 °F 33.8 °F 100% 30.16 in 5.0 mi North 5.8 mph - N/A   Overcast
8:15 PM 33.8 °F 28.6 °F 33.8 °F 100% 30.16 in 5.0 mi NNW 5.8 mph - N/A   Overcast
8:35 PM 33.8 °F 28.6 °F 33.8 °F 100% 30.15 in 7.0 mi North 5.8 mph - 0.01 in   Mostly Cloudy
8:55 PM 33.8 °F 28.6 °F 33.8 °F 100% 30.15 in 9.0 mi North 5.8 mph - 0.01 in   Overcast
9:15 PM 33.8 °F 28.6 °F 33.8 °F 100% 30.15 in 9.0 mi North 5.8 mph - N/A   Overcast
9:35 PM 33.8 °F 28.6 °F 33.8 °F 100% 30.14 in 8.0 mi North 5.8 mph - N/A   Overcast
9:55 PM 33.8 °F 28.6 °F 33.8 °F 100% 30.14 in 10.0 mi North 5.8 mph - N/A   Overcast
10:15 PM 33.8 °F 29.6 °F 33.8 °F 100% 30.13 in 10.0 mi North 4.6 mph - N/A   Overcast
10:35 PM 33.8 °F 27.7 °F 33.8 °F 100% 30.13 in 9.0 mi North 6.9 mph - 0.01 in   Overcast
10:55 PM 33.8 °F 28.6 °F 33.8 °F 100% 30.13 in 10.0 mi North 5.8 mph - 0.01 in   Overcast
11:15 PM 33.8 °F 27.7 °F 33.8 °F 100% 30.12 in 10.0 mi North 6.9 mph - 0.01 in   Overcast
11:35 PM 33.8 °F 27.0 °F 33.8 °F 100% 30.11 in 10.0 mi NNE 8.1 mph - 0.02 in   Overcast
11:55 PM 33.8 °F 29.6 °F 33.8 °F 100% 30.11 in 8.0 mi North 4.6 mph - 0.03 in   Overcast